Погода Аул Турара Рыскулова

Погода Аул Турара Рыскулова : погода сейчас, прогноз погоды и архив. Всё, что Вы хотите узнать о погоде Аул Турара Рыскулова!

Поиск расширенной информации на нашем сайте:

Другие новости

Новости СМИ2

Главная страница сайта

Новости сайта

02.10.2013

Напоминаем, что на нашем новом сайте вы можете получить высокодетализированные прогнозы погоды по пунктам России, СНГ и мира (включающие важные для авиации метеовеличины, такие как направление и скорость ветра, видимость, явления погоды, количество и форма облачности, нижняя и верхняя граница облачности), а также ознакомиться с разнообразными материалами по авиационной метеорологии и подборкой полезных ссылок на эту тему.

Сайт Метеоцентр.Азия посвящён разработке технологий оптимизации авиаметеорологического обслуживания, включая проектирование и перспективное создание нескольких автоматизированных авиаметеорологических систем:
- система выпуска высокодетальных прогностических карт явлений погоды для нижнего воздушного пространства по России и ближнему зарубежью;
- система верификации прогнозов TAF (выпускаемых синоптиками официальных АМСГ РФ и ближнего зарубежья) и AUTOTAF (выпускаемых сайтом Метеоцентр.Азия) - выявление ошибок, онлайн-сопоставление с фактической погодой METAR, автоматическое внесение коррективов в прогнозы при резком отклонении фактической погоды от прогноза, подсчёт оправдываемости прогнозов по элементам и в целом;
- система обработки, анализа и отображения авиаметеорологической информации для применения провайдерами метеорологической информации.


Погода Аул Турара Рыскулова - сегодня

Время (UTC), дата Ветер
(°,м/с) 
Видим.   Явления Облачность Т
(°С)
Тd
(°С)
f(%) Тe
(°С)
Pmin
(гПа)
dP
(гПа)
Po
(мм)
O2
(г/м3)
Тmin Tmax R s Состояние
почвы
00 25.04.17 050 (СВ) 20000 м    ясно 
+13 +5.6 61 +13  1013.3  -0.7  691  265           
03 25.04.17 090 (В) 20000 м    ясно 
+18.6 +7.7 49 +20  1012.1  0.6  692  259           
06 25.04.17 310 (СЗ) 20000 м    ясно 
+24.6 +7.8 34 +25  1011.1  0.8  692  254  +11.8         
09 25.04.17 320 (СЗ) 20000 м    ясно 
+26.8 +9.2 33 +28  1010.1  -0.3  692  252           
12 25.04.17 270 (З) 10 км    ясно 
+27.3 +7 28 +27  1009.3  -0.6  691  252           
15 25.04.17 050 (СВ) 10 км    ясно 
+19 +8.6 51 +21  1012.6  -0.7  692  259    +28.8       
18 25.04.17 050 (СВ) 10 км    ясно 
+15.8 +7.8 59 +17  1014  0.3  692  262    +28.8       
21 25.04.17 050 (СВ) 10 км    ясно 
+14.8 +7.6 62 +16  1014.1  -0.3  692  263           
00 26.04.17 050 (СВ) 10 км    ясно 
+13.4 +6.5 63 +15  1014.2  -0.2  692  265           
03 26.04.17 050 (СВ) 20000 м    ясно 
+17 +4.3 43 +18  1013.7  0.6  692  262           
06 26.04.17 270 (З) 20000 м    ясно 
+26.4 +11.5 39 +31  1011.4  0.7  693  252  +13.4         
09 26.04.17 270 (З) 20000 м    ясно 
+26.8 +12.8 42 +34  1011.8  0.6  693  252           
12 26.04.17 270 (З) 20000 м    1/1 1000 м 
[Cu med, cong]
+25.6 +11.5 41 +31  1012.7  0.3  693  253           
15 26.04.17 тихо ()   20000 м    1/1 1000 м 
[Sc]
+18.2 +11.2 64 +23  1016.1  694  260    +28.2       
18 26.04.17 050 (СВ) 20000 м    3/0 средняя 
[Ac lent]
+16 +9.9 67 +20  1017.9  0.9  695  263    +28.2       
21 26.04.17 110 (В) 20000 м    ясно 
+15.5 +8.4 63 +18  1019.5  1.3  696  264           
00 27.04.17 050 (СВ) 20000 м    ясно 
+14.8 +6.1 56 +15  1019.2  -0.5  695  265           
03 27.04.17 020 (С) 20000 м    ясно 
+16.8 +4.8 45 +17  1019.4  0.8  696  263           
06 27.04.17 270 (З) 20000 м    10/10 1000 м кучево-дожд. 
[Cb cap]
+13.6 +4 52 +13  1023.9  3.1  698  267  +12.6         
09 27.04.17 270 (З) 20000 м    10/10 1000 м 
[Sc]
+13.6 +4.8 55 +14  1025.1  1.1  699  268           
12 27.04.17 320 (СЗ) 4000 м  дымка  10/10 600 м кучево-дожд. 
[Cb cap]
+10 +8.8 92 +11  1027.2  0.9  700  270           
15 27.04.17 320 (СЗ) 2000 м  ливневой дождь  10/10 100 м кучево-дожд. 
[Cb cap]
+8.6 +7.7 94 +8  1028.3  0.5  700  272    +20     
18 27.04.17 270 (З) 4000 м  слаб. ливневой дождь  10/10 100 м кучево-дожд. 
[Cb cap]
+7.8 +7.1 95 +9  1029.3  0.7  701  273    +20     
21 27.04.17 270 (З) 10 км  слаб. ливневой дождь  10/10 100 м кучево-дожд. 
[Cb cap]
+6.2 +5.5 95 +7  1030  701  275           
00 28.04.17 тихо ()   10 км  слаб. ливневой дождь  10/10 600 м кучево-дожд. 
[Cb cap]
+5.5 +4.8 95 +6  1030.4  0.1  701  276           
Время (UTC), дата Ветер
(°,м/с) 
Видим.   Явления Облачность Т
(°С)
Тd
(°С)
f(%) Тe
(°С)
Pmin
(гПа)
dP
(гПа)
Po
(мм)
O2
(г/м3)
Тmin Tmax R s Состояние
почвы

Для получения пояснительной информации подведите курсор к названию столбца.

ПОГОДА Аул Турара Рыскулова - архив

Всё, что Вы хотите узнать о погоде Аул Турара Рыскулова - удобно и подробно!

Выберите нужную дату (начиная с 1 января 2015* года) и нажмите кнопку "Найти".
Будут отображены архивные сводки погоды по пункту Аул Турара Рыскулова, начиная с указанной даты.


Отображать данные в формате CSV (для использования в таблицах Excel)


Внимание! Наш архив погоды предназначен исключительно для личного некоммерческого использования в познавательных целях. Если Вам необходимы официальные справки о состоянии погоды (для производственных, юридических, коммерческих и т.п. целей), обращайтесь в органы Росгидромета.

*Примечание: данная дата относится к архиву по метеостанциям СССР (Россия, СНГ, Балтия).
Архив по метеостанциям Зарубежной Европы и Азии (кроме Китая) хранится 10 дней, по другим регионам земного шара (Китай, Африка, Америка, Австралия, Океания) - 1 день.

Аул Турара Рыскулова - район местоположения метеостанции


Название, широта, долгота, высота метеостанции:
Аул Турара Рыскулова (Тюлькубас) 42.5°ш. 70.3°д. 808 м над ур. моря [Казахстан]

Дополнительная информация

В oтличие oт бoльшинства пoгoдных сайтoв мы публикуем пoдрoбную метеoинфoрмацию в детальнoм прoфессиoнальнoм фoрмате.

Характеристики температуры и влажнoсти вoздуха измеряются на высoте 2 м в тени вдали oт зданий и деревьев.
Скoрoсть ветра измеряется на высoте 10 м (на урoвне рoста челoвека скoрoсть ветра ниже в 1.5-2 раза). Если метеoстанция нахoдится в гoрoде или в лесу, тo скoрoсть ветра занижена на 2-4 м/с пo сравнению с oткрытым местoм. Скoрoсть ветра над акватoриями крупных рек и oзёр, а также на вершинах хoлмoв на 2-5 м/с выше, чем в oбычных услoвиях.
Атмoсфернoе давление в разных тoчках местнoсти мoжет значительнo oтличаться oт давления на метеoстанции, в зависимoсти oт услoвий рельефа (при пoдъёме на 10 м давление пoнижается примернo на 1 мм рт.ст.).